| time (UTC) | temp C | wind direction | speed KPH | gust KPH | rain 1hr cm | rain 24hr cm | rain mn cm | humidity % | barometer mb |
| 20260505173002 | 10 | 270 | 35.4 | 38.6 | 0.00 | 0.03 | 0.00 | 81 | |
| 20260505172001 | 10 | 225 | 25.7 | 29.0 | 0.00 | 0.03 | 0.00 | 84 | |
| 20260505171430 | 10 | 270 | 27.4 | 29.0 | 0.00 | 0.03 | 0.00 | 85 | |
| 20260505170001 | 9 | 248 | 22.5 | 35.4 | 0.00 | 0.03 | 0.00 | 88 | |
| 20260505165002 | 9 | 270 | 22.5 | 29.0 | 0.00 | 0.03 | 0.00 | 91 | |
| 20260505164001 | 8 | 248 | 19.3 | 32.2 | 0.00 | 0.03 | 0.00 | 93 | |
| 20260505163002 | 8 | 248 | 16.1 | 32.2 | 0.00 | 0.03 | 0.00 | 93 | |
| 20260505162001 | 8 | 270 | 16.1 | 20.9 | 0.00 | 0.03 | 0.00 | 90 | |
| 20260505161002 | 8 | 248 | 16.1 | 24.1 | 0.00 | 0.03 | 0.00 | 90 | |
| 20260505152002 | 8 | 180 | 4.8 | 17.7 | 0.00 | 0.00 | 0.00 | 87 | |
| 20260505151001 | 7 | 225 | 11.3 | 19.3 | 0.00 | 0.00 | 0.00 | 87 | |
| 20260505125001 | 6 | 292 | 27.4 | 37.0 | 0.00 | 0.00 | 0.00 | 89 | |
| 20260505124002 | 6 | 270 | 33.8 | 35.4 | 0.00 | 0.00 | 0.00 | 88 | |
| 20260505123001 | 6 | 270 | 32.2 | 38.6 | 0.00 | 0.00 | 0.00 | 86 | |
| 20260505122002 | 7 | 270 | 45.1 | 48.3 | 0.00 | 0.00 | 0.00 | 77 | |
| 20260505121001 | 8 | 248 | 22.5 | 40.2 | 0.00 | 0.00 | 0.00 | 74 | |
| 20260505120002 | 8 | 270 | 22.5 | 40.2 | 0.00 | 0.00 | 0.00 | 75 | |
| 20260505115002 | 8 | 270 | 19.3 | 35.4 | 0.00 | 0.00 | 0.00 | 75 | |
| 20260505114425 | 8 | 270 | 30.6 | 46.7 | 0.00 | 0.00 | 0.00 | 73 | |
| 20260505113002 | 8 | 270 | 16.1 | 32.2 | 0.00 | 0.00 | 0.00 | 73 | |
| 20260505112427 | 8 | 270 | 22.5 | 27.4 | 0.00 | 0.00 | 0.00 | 75 | |
| 20260505111002 | 8 | 270 | 27.4 | 32.2 | 0.00 | 0.00 | 0.00 | 76 | |
| 20260505040002 | 11 | 315 | 17.7 | 25.7 | 0.00 | 0.00 | 0.00 | 57 | |
| 20260505035001 | 12 | 315 | 25.7 | 38.6 | 0.00 | 0.00 | 0.00 | 57 | |
| 20260505034002 | 12 | 270 | 19.3 | 32.2 | 0.00 | 0.00 | 0.00 | 53 | |
| 20260505033426 | 12 | 292 | 24.1 | 33.8 | 0.00 | 0.00 | 0.00 | 49 | |
| 20260505032002 | 12 | 292 | 17.7 | 30.6 | 0.00 | 0.00 | 0.00 | 47 | |
| 20260505031001 | 13 | 338 | 17.7 | 25.7 | 0.00 | 0.00 | 0.00 | 45 | |
| 20260505030002 | 13 | 270 | 14.5 | 29.0 | 0.00 | 0.00 | 0.00 | 43 | |
| 20260505025426 | 13 | 315 | 17.7 | 29.0 | 0.00 | 0.00 | 0.00 | 41 | |
| 20260505024002 | 13 | 292 | 14.5 | 32.2 | 0.00 | 0.00 | 0.00 | 41 | |
| 20260505023002 | 13 | 292 | 22.5 | 37.0 | 0.00 | 0.00 | 0.00 | 40 | |
| 20260505022001 | 14 | 338 | 25.7 | 35.4 | 0.00 | 0.00 | 0.00 | 39 | |
| 20260505021002 | 14 | 270 | 22.5 | 38.6 | 0.00 | 0.00 | 0.00 | 38 | |
| 20260505020002 | 14 | 270 | 22.5 | 38.6 | 0.00 | 0.00 | 0.00 | 38 | |
| 20260505015426 | 15 | 270 | 33.8 | 45.1 | 0.00 | 0.00 | 0.00 | 37 | |
| 20260505014002 | 15 | 292 | 32.2 | 45.1 | 0.00 | 0.00 | 0.00 | 37 | |
| 20260505013002 | 16 | 270 | 14.5 | 35.4 | 0.00 | 0.00 | 0.00 | 33 | |
| 20260505012002 | 16 | 270 | 19.3 | 38.6 | 0.00 | 0.00 | 0.00 | 32 | |
| 20260505011002 | 16 | 270 | 33.8 | 33.8 | 0.00 | 0.00 | 0.00 | 30 | |
| 20260505010001 | 17 | 270 | 30.6 | 37.0 | 0.00 | 0.00 | 0.00 | 28 | |
| 20260505005002 | 17 | 270 | 17.7 | 30.6 | 0.00 | 0.00 | 0.00 | 28 | |
| 20260505004002 | 17 | 202 | 11.3 | 30.6 | 0.00 | 0.00 | 0.00 | 27 | |
| 20260505003001 | 17 | 248 | 29.0 | 33.8 | 0.00 | 0.00 | 0.00 | 27 | |
| 20260505002002 | 17 | 248 | 29.0 | 37.0 | 0.00 | 0.00 | 0.00 | 26 | |
| 20260505001001 | 18 | 225 | 29.0 | 37.0 | 0.00 | 0.00 | 0.00 | 26 | |
| 20260505000002 | 18 | 202 | 14.5 | 27.4 | 0.00 | 0.00 | 0.00 | 26 | |
| 20260504235002 | 18 | 270 | 38.6 | 38.6 | 0.00 | 0.00 | 0.00 | 26 | |
| 20260504234001 | 18 | 270 | 27.4 | 38.6 | 0.00 | 0.00 | 0.00 | 26 | |
| 20260504233002 | 18 | 248 | 32.2 | 35.4 | 0.00 | 0.00 | 0.00 | 26 | |
| 20260504232002 | 18 | 225 | 41.8 | 45.1 | 0.00 | 0.00 | 0.00 | 26 | |
| 20260504231002 | 18 | 270 | 24.1 | 41.8 | 0.00 | 0.00 | 0.00 | 26 | |
| 20260504230427 | 19 | 248 | 22.5 | 35.4 | 0.00 | 0.00 | 0.00 | 26 | |
| 20260504225001 | 20 | 225 | 29.0 | 33.8 | 0.00 | 0.00 | 0.00 | 25 | |
| 20260504224002 | 20 | 270 | 40.2 | 45.1 | 0.00 | 0.00 | 0.00 | 25 | |
| 20260504223002 | 20 | 270 | 22.5 | 37.0 | 0.00 | 0.00 | 0.00 | 25 | |
| 20260504222002 | 20 | 270 | 19.3 | 22.5 | 0.00 | 0.00 | 0.00 | 27 | |
| 20260504221002 | 19 | 270 | 27.4 | 38.6 | 0.00 | 0.00 | 0.00 | 27 | |
| 20260504220428 | 18 | 248 | 27.4 | 43.5 | 0.00 | 0.00 | 0.00 | 27 | |
| 20260504215002 | 18 | 248 | 30.6 | 38.6 | 0.00 | 0.00 | 0.00 | 27 | |
| 20260504214424 | 20 | 225 | 22.5 | 37.0 | 0.00 | 0.00 | 0.00 | 26 | |
| 20260504213002 | 20 | 225 | 40.2 | 40.2 | 0.00 | 0.00 | 0.00 | 25 | |
| 20260504212002 | 19 | 270 | 27.4 | 33.8 | 0.00 | 0.00 | 0.00 | 25 | |
| 20260504211002 | 20 | 225 | 27.4 | 32.2 | 0.00 | 0.00 | 0.00 | 24 | |
| 20260504210428 | 21 | 270 | 25.7 | 32.2 | 0.00 | 0.00 | 0.00 | 25 | |
| 20260504205429 | 20 | 248 | 38.6 | 38.6 | 0.00 | 0.00 | 0.00 | 25 | |
| 20260504204425 | 20 | 248 | 41.8 | 41.8 | 0.00 | 0.00 | 0.00 | 25 | |
| 20260504203001 | 19 | 225 | 22.5 | 37.0 | 0.00 | 0.00 | 0.00 | 25 | |
| 20260504202001 | 20 | 225 | 35.4 | 40.2 | 0.00 | 0.00 | 0.00 | 26 | |
| 20260504201428 | 19 | 225 | 17.7 | 38.6 | 0.00 | 0.00 | 0.00 | 26 | |
| 20260504200001 | 19 | 270 | 14.5 | 35.4 | 0.00 | 0.00 | 0.00 | 25 | |
| 20260504195002 | 19 | 225 | 9.7 | 33.8 | 0.00 | 0.00 | 0.00 | 26 | |
| 20260504194001 | 19 | 270 | 12.9 | 35.4 | 0.00 | 0.00 | 0.00 | 25 | |
| 20260504193002 | 18 | 270 | 25.7 | 38.6 | 0.00 | 0.00 | 0.00 | 26 | |
| 20260504192427 | 20 | 180 | 17.7 | 30.6 | 0.00 | 0.00 | 0.00 | 26 | |
| 20260504191002 | 20 | 270 | 22.5 | 29.0 | 0.00 | 0.00 | 0.00 | 24 | |
| 20260504190002 | 20 | 270 | 22.5 | 33.8 | 0.00 | 0.00 | 0.00 | 26 | |
| 20260504185002 | 18 | 248 | 30.6 | 37.0 | 0.00 | 0.00 | 0.00 | 26 | |
| 20260504184002 | 18 | 225 | 32.2 | 40.2 | 0.00 | 0.00 | 0.00 | 26 | |
| 20260504183002 | 18 | 225 | 12.9 | 35.4 | 0.00 | 0.00 | 0.00 | 27 | |
| 20260504182002 | 18 | 248 | 29.0 | 30.6 | 0.00 | 0.00 | 0.00 | 28 | |
| 20260504181003 | 18 | 248 | 22.5 | 27.4 | 0.00 | 0.00 | 0.00 | 29 | |
| 20260504180002 | 17 | 202 | 22.5 | 32.2 | 0.00 | 0.00 | 0.00 | 31 | |
| 20260504175002 | 17 | 225 | 25.7 | 29.0 | 0.00 | 0.00 | 0.00 | 32 | |
| 20260504174002 | 17 | 248 | 20.9 | 27.4 | 0.00 | 0.00 | 0.00 | 33 |